User: anonymous   Login
Location: Unspecified
(0.0000°N, 0.0000°E)
Time: 20:35:56
(UTC+00:00)
Language:

LQSAT - Orbit

View from above orbital plane
View from above orbital plane
View from above satellite
View from above satellite

Ground track
Ground track

The orbit data is extracted from the following two-line orbital elements,

1 40958U 15057A   18351.50193937  .00000025  00000-0  11522-4 0  9991
2 40958  97.9223  60.4265 0019419 107.4859 252.8474 14.73060622171834
Epoch (UTC): 17 December 2018 12:02:47
Eccentricity: 0.0019419
inclination: 97.9223°
perigee height: 637 km
apogee height: 665 km
right ascension of ascending node: 60.4265°
argument of perigee: 107.4859°
revolutions per day: 14.73060622
mean anomaly at epoch: 252.8474°
orbit number at epoch: 17183

The dashed part of the orbit path shows where the satellite is in the earth's shadow,  

DLR